FW8433 Weather Reports


time (UTC)temp
C
wind
direction
speed
KPH
gust
KPH
rain 1hr
cm
rain 24hr
cm
rain mn
cm
humidity
%
barometer
mb
20260502204051 22 346 3.2 20.9 0.00 0.00 0.00 42 1018.2
20260502203552 21 332 9.7 20.9 0.00 0.00 0.00 43 1018.4
20260502203109 21 5 9.7 17.7 0.00 0.00 0.00 40 1018.4
20260502202550 22 322 4.8 14.5 0.00 0.00 0.00 43 1018.5
20260502202053 22 94 3.2 19.3 0.00 0.00 0.00 45 1018.5
20260502201606 22 0 6.4 19.3 0.00 0.00 0.00 45 1018.5
20260502201050 22 34 9.7 19.3 0.00 0.00 0.00 42 1018.6
20260502200552 22 19 4.8 20.9 0.00 0.00 0.00 46 1018.7
20260502200057 21 49 9.7 20.9 0.00 0.00 0.00 43 1018.7
20260502195551 21 327 9.7 19.3 0.00 0.00 0.00 40 1018.7
20260502195051 21 26 3.2 20.9 0.00 0.00 0.00 43 1018.8
20260502194558 21 21 11.3 20.9 0.00 0.00 0.00 42 1018.9
20260502194051 22 352 3.2 20.9 0.00 0.00 0.00 42 1018.9
20260502193549 22 34 6.4 20.9 0.00 0.00 0.00 43 1019.0
20260502193113 21 296 8.0 22.5 0.00 0.00 0.00 42 1018.9
20260502192550 21 69 9.7 22.5 0.00 0.00 0.00 42 1018.9
20260502192048 21 51 6.4 22.5 0.00 0.00 0.00 44 1019.1
20260502191558 21 340 9.7 22.5 0.00 0.00 0.00 42 1019.1
20260502191051 21 346 9.7 25.7 0.00 0.00 0.00 40 1019.0
20260502190550 21 347 11.3 25.7 0.00 0.00 0.00 42 1019.0
20260502190053 21 44 8.0 24.1 0.00 0.00 0.00 38 1019.1
20260502185550 21 9 11.3 24.1 0.00 0.00 0.00 40 1019.2
20260502185051 21 290 9.7 19.3 0.00 0.00 0.00 45 1019.2
20260502184559 21 19 8.0 59.5 0.00 0.00 0.00 44 1019.2
20260502184048 21 60 14.5 59.5 0.00 0.00 0.00 43 1019.1
20260502183551 21 323 4.8 17.7 0.00 0.00 0.00 45 1019.2
20260502183059 21 355 8.0 22.5 0.00 0.00 0.00 42 1019.2
20260502182549 21 351 11.3 22.5 0.00 0.00 0.00 44 1019.3
20260502182052 21 316 11.3 25.7 0.00 0.00 0.00 43 1019.3
20260502181558 21 19 8.0 25.7 0.00 0.00 0.00 45 1019.4
20260502181051 21 53 8.0 19.3 0.00 0.00 0.00 43 1019.4
20260502180552 21 67 8.0 19.3 0.00 0.00 0.00 44 1019.5
20260502164051 20 61 11.3 24.1 0.00 0.00 0.00 47 1020.0
20260502163550 20 66 8.0 17.7 0.00 0.00 0.00 49 1019.9
20260502163110 19 26 11.3 20.9 0.00 0.00 0.00 47 1019.8
20260502162550 19 59 9.7 20.9 0.00 0.00 0.00 50 1020.0
20260502162049 19 27 9.7 19.3 0.00 0.00 0.00 48 1020.0
20260502161555 19 66 8.0 17.7 0.00 0.00 0.00 50 1020.0
20260502161049 19 67 6.4 17.7 0.00 0.00 0.00 51 1020.2
20260502160550 19 80 3.2 17.7 0.00 0.00 0.00 55 1020.3
20260502160106 18 24 9.7 17.7 0.00 0.00 0.00 51 1020.2
20260502152050 18 323 6.4 12.9 0.00 0.00 0.00 59 1020.2
20260502151557 17 80 6.4 14.5 0.00 0.00 0.00 58 1020.3
20260502151049 17 53 6.4 14.5 0.00 0.00 0.00 60 1020.1
20260502150549 17 5 6.4 16.1 0.00 0.00 0.00 64 1020.1
20260502130549 13 13 3.2 9.7 0.00 0.00 0.00 77 1018.7
20260502123549 12 42 4.8 12.9 0.00 0.00 0.00 82 1018.4
20260502123051 12 37 3.2 12.9 0.00 0.00 0.00 83 1018.3
20260502122551 12 336 1.6 6.4 0.00 0.00 0.00 84 1018.2
20260502122051 12 346 1.6 6.4 0.00 0.00 0.00 83 1018.2
20260502121551 12 346 0.0 6.4 0.00 0.00 0.00 83 1018.1
20260502121054 12 346 0.0 8.0 0.00 0.00 0.00 83 1017.9
20260502120552 12 313 1.6 8.0 0.00 0.00 0.00 83 1017.9
20260502120105 12 0 1.6 6.4 0.00 0.00 0.00 83 1017.8
20260502115553 12 352 1.6 6.4 0.00 0.00 0.00 83 1017.7
20260502115048 12 0 0.0 3.2 0.00 0.00 0.00 83 1017.7
20260502114634 12 0 0.0 4.8 0.00 0.00 0.00 83 1017.6
20260502114054 12 341 0.0 6.4 0.00 0.00 0.00 83 1017.4
20260502113554 12 0 0.0 6.4 0.00 0.00 0.00 83 1017.3
20260502113054 12 341 0.0 4.8 0.00 0.00 0.00 83 1017.4
20260502112553 12 350 0.0 4.8 0.00 0.00 0.00 83 1017.2
20260502112053 12 0 1.6 6.4 0.00 0.00 0.00 83 1017.1
20260502111554 12 0 0.0 6.4 0.00 0.00 0.00 83 1017.1
20260502111053 12 0 1.6 6.4 0.00 0.00 0.00 83 1017.1
20260502110554 12 0 1.6 6.4 0.00 0.00 0.00 83 1016.9
20260502110055 12 325 1.6 6.4 0.00 0.00 0.00 83 1017.0
20260502105557 12 9 3.2 8.0 0.00 0.00 0.00 83 1016.9
20260502105053 12 346 3.2 8.0 0.00 0.00 0.00 83 1016.8
20260502104553 12 0 0.0 4.8 0.00 0.00 0.00 83 1016.8
20260502104052 12 338 1.6 8.0 0.00 0.00 0.00 83 1016.7
20260502103550 12 0 0.0 8.0 0.00 0.00 0.00 83 1016.6
20260502103054 12 344 1.6 8.0 0.00 0.00 0.00 83 1016.7
20260502102554 12 15 1.6 6.4 0.00 0.00 0.00 83 1016.5
20260502102054 12 352 1.6 4.8 0.00 0.00 0.00 83 1016.6
20260502101614 12 0 0.0 4.8 0.00 0.00 0.00 82 1016.5
20260502101054 12 0 0.0 8.0 0.00 0.00 0.00 83 1016.5
20260502100555 12 350 1.6 8.0 0.00 0.00 0.00 83 1016.5
20260502100108 12 360 1.6 8.0 0.00 0.00 0.00 83 1016.5
20260502091053 12 348 0.0 3.2 0.00 0.00 0.00 83 1016.1
20260502090553 12 0 0.0 4.8 0.00 0.00 0.00 83 1016.0
20260502071051 12 0 0.0 0.0 0.00 0.00 0.00 88 1016.1
20260502070552 12 0 0.0 0.0 0.00 0.00 0.00 88 1016.0
20260502070108 12 0 0.0 0.0 0.00 0.00 0.00 88 1016.1
20260502065550 13 0 0.0 0.0 0.00 0.00 0.00 88 1016.2
20260502065049 13 0 0.0 0.0 0.00 0.00 0.00 88 1016.3
20260502064621 13 0 0.0 0.0 0.00 0.00 0.00 88 1016.3
20260502064050 13 0 0.0 0.0 0.00 0.00 0.00 87 1016.4
20260502063550 13 0 0.0 0.0 0.00 0.00 0.00 87 1016.5
20260502063119 13 0 0.0 0.0 0.00 0.00 0.00 87 1016.4
20260502062555 13 0 0.0 0.0 0.00 0.00 0.00 87 1016.7
20260502062049 13 0 0.0 0.0 0.00 0.00 0.00 87 1016.7
20260502061554 13 0 0.0 1.6 0.00 0.00 0.00 87 1016.6
20260502061049 13 0 0.0 3.2 0.00 0.00 0.00 87 1016.4
20260502060554 13 0 0.0 3.2 0.00 0.00 0.00 87 1016.4
20260502060053 13 0 0.0 4.8 0.00 0.00 0.00 87 1016.4
20260502055552 13 352 1.6 4.8 0.00 0.00 0.00 87 1016.4
20260502055051 13 345 0.0 3.2 0.00 0.00 0.00 87 1016.6
20260502054552 13 0 0.0 1.6 0.00 0.00 0.00 87 1016.8
20260502054050 13 0 0.0 0.0 0.00 0.00 0.00 87 1017.2
20260502053551 13 0 0.0 0.0 0.00 0.00 0.00 87 1017.2
20260502053059 13 0 0.0 0.0 0.00 0.00 0.00 87 1017.2
20260502052549 13 0 0.0 0.0 0.00 0.00 0.00 87 1017.0
20260502052053 13 0 0.0 3.2 0.00 0.00 0.00 87 1016.8
20260502051554 13 0 0.0 3.2 0.00 0.00 0.00 87 1016.7
20260502051055 13 0 0.0 3.2 0.00 0.00 0.00 87 1016.8
20260502050550 13 0 0.0 0.0 0.00 0.00 0.00 86 1016.8
20260502050056 13 0 0.0 1.6 0.00 0.00 0.00 86 1016.8
20260502045550 13 0 0.0 1.6 0.00 0.00 0.00 86 1016.6
20260502045050 13 0 0.0 3.2 0.00 0.00 0.00 86 1016.5
20260502044552 13 0 0.0 3.2 0.00 0.00 0.00 86 1016.6
20260502044051 13 56 0.0 3.2 0.00 0.00 0.00 86 1016.6
20260502043549 13 0 0.0 1.6 0.00 0.00 0.00 86 1016.5
20260502043125 13 0 0.0 1.6 0.00 0.00 0.00 86 1016.8
20260502042550 13 0 0.0 1.6 0.00 0.00 0.00 86 1016.5
20260502042050 13 0 0.0 1.6 0.00 0.00 0.00 86 1016.8
20260502041602 13 0 0.0 3.2 0.00 0.00 0.00 86 1017.2
20260502041054 13 5 0.0 3.2 0.00 0.00 0.00 87 1017.0
20260502040549 13 23 0.0 3.2 0.00 0.00 0.00 87 1016.9
20260502040059 13 0 0.0 3.2 0.00 0.00 0.00 87 1017.2
20260502035550 13 348 0.0 6.4 0.00 0.00 0.00 87 1016.9
20260502035050 13 0 0.0 6.4 0.00 0.00 0.00 88 1016.9
20260502034556 13 346 1.6 6.4 0.00 0.00 0.00 88 1016.9
20260502034050 13 0 0.0 4.8 0.00 0.00 0.00 88 1016.8
20260502033549 13 0 0.0 6.4 0.00 0.00 0.00 88 1016.5
20260502033053 13 337 0.0 6.4 0.00 0.00 0.00 88 1016.3
20260502032550 13 318 0.0 6.4 0.00 0.00 0.00 88 1016.2
20260502032052 13 0 0.0 6.4 0.00 0.00 0.00 88 1016.2
20260502031556 13 0 0.0 6.4 0.00 0.00 0.00 88 1016.2
20260502031050 13 333 0.0 6.4 0.00 0.00 0.00 88 1015.9
20260502030549 13 0 0.0 6.4 0.00 0.00 0.00 88 1016.0
20260502025549 13 0 0.0 0.0 0.00 0.00 0.00 88 1015.4
20260502025049 13 0 0.0 0.0 0.00 0.00 0.00 88 1015.5
20260502024602 13 0 0.0 0.0 0.00 0.00 0.00 88 1015.7
20260502024050 13 0 0.0 1.6 0.00 0.00 0.00 88 1015.7
20260502023550 13 0 0.0 1.6 0.00 0.00 0.00 88 1015.4
20260502023107 13 0 0.0 1.6 0.00 0.00 0.00 87 1015.2
20260502022549 13 0 0.0 1.6 0.00 0.00 0.00 87 1015.2
20260502022113 13 0 0.0 1.6 0.00 0.00 0.00 88 1015.1
20260502021554 13 0 0.0 1.6 0.00 0.00 0.00 87 1015.2
20260502021050 13 0 0.0 3.2 0.00 0.00 0.00 87 1015.1
20260502020554 13 0 0.0 3.2 0.00 0.00 0.00 87 1015.0
20260502020056 14 0 0.0 0.0 0.00 0.00 0.00 87 1014.6
20260502015550 14 0 0.0 0.0 0.00 0.00 0.00 87 1014.9
20260502015050 14 0 0.0 0.0 0.00 0.00 0.00 87 1015.1
20260502014554 14 0 0.0 0.0 0.00 0.00 0.00 87 1015.2
20260502014051 14 0 0.0 0.0 0.00 0.00 0.00 86 1015.2
20260502013550 14 0 0.0 0.0 0.00 0.00 0.00 86 1015.2
20260502013101 14 0 0.0 0.0 0.00 0.00 0.00 86 1015.3
20260502012549 14 0 0.0 0.0 0.00 0.00 0.00 85 1015.6
20260502012049 14 0 0.0 0.0 0.00 0.00 0.00 85 1015.8
20260502011604 15 0 0.0 0.0 0.00 0.00 0.00 85 1015.8
20260502011049 15 0 0.0 0.0 0.00 0.00 0.00 85 1015.8
20260502010549 15 0 0.0 0.0 0.00 0.00 0.00 85 1015.7
20260502010108 15 0 0.0 0.0 0.00 0.00 0.00 84 1015.4
20260502005550 15 0 0.0 0.0 0.00 0.00 0.00 84 1015.4
20260502005050 15 0 0.0 0.0 0.00 0.00 0.00 84 1015.5
20260502004555 15 0 0.0 0.0 0.00 0.00 0.00 83 1015.7
20260502004052 15 0 0.0 0.0 0.00 0.00 0.00 83 1015.7
20260502003549 15 0 0.0 0.0 0.00 0.00 0.00 82 1015.7
20260502003052 15 0 0.0 0.0 0.00 0.00 0.00 82 1015.6
20260502002549 15 0 0.0 0.0 0.00 0.00 0.00 81 1015.6
20260502002050 15 0 0.0 0.0 0.00 0.00 0.00 81 1015.5
20260502001558 15 0 0.0 0.0 0.00 0.00 0.00 80 1015.5
20260502001050 15 0 0.0 0.0 0.00 0.00 0.00 80 1015.6
20260502000550 15 0 0.0 0.0 0.00 0.00 0.00 80 1015.6
20260502000055 15 0 0.0 0.0 0.00 0.00 0.00 80 1015.4
20260501235550 15 0 0.0 0.0 0.00 0.00 0.00 79 1015.4
20260501235050 15 0 0.0 0.0 0.00 0.00 0.00 78 1015.3
20260501234557 15 0 0.0 0.0 0.00 0.00 0.00 78 1015.2
20260501234050 15 0 0.0 0.0 0.00 0.00 0.00 78 1015.0
20260501233555 15 0 0.0 0.0 0.00 0.00 0.00 78 1014.9
20260501233104 15 0 0.0 4.8 0.00 0.00 0.00 77 1014.9
20260501232549 15 0 0.0 4.8 0.00 0.00 0.00 76 1014.7
20260501232050 15 15 1.6 6.4 0.00 0.00 0.00 76 1014.7
20260501231559 15 36 1.6 6.4 0.00 0.00 0.00 76 1014.6
20260501231053 15 36 3.2 6.4 0.00 0.00 0.00 75 1014.6
20260501230553 15 25 1.6 9.7 0.00 0.00 0.00 75 1014.6
20260501230055 15 5 3.2 12.9 0.00 0.00 0.00 75 1014.4
20260501225554 15 5 3.2 12.9 0.00 0.00 0.00 75 1014.2
20260501225053 15 58 4.8 12.9 0.00 0.00 0.00 75 1014.2
20260501224554 15 22 1.6 8.0 0.00 0.00 0.00 75 1014.0
20260501224055 15 36 4.8 9.7 0.00 0.00 0.00 74 1013.8
20260501223556 15 40 3.2 9.7 0.00 0.00 0.00 74 1014.1
20260501223054 15 352 6.4 16.1 0.00 0.00 0.00 73 1014.0
20260501222554 15 32 6.4 16.1 0.00 0.00 0.00 73 1013.7
20260501222050 15 38 4.8 16.1 0.00 0.00 0.00 73 1013.5
20260501221555 15 30 8.0 16.1 0.00 0.00 0.00 74 1013.0
20260501221053 15 15 6.4 19.3 0.00 0.00 0.00 75 1013.0
20260501220554 15 55 8.0 19.3 0.00 0.00 0.00 75 1013.1
20260501220108 15 17 8.0 19.3 0.00 0.00 0.00 76 1013.0
20260501215554 15 51 8.0 16.1 0.00 0.00 0.00 75 1013.0
20260501215058 15 85 8.0 16.1 0.00 0.00 0.00 75 1013.0
20260501214552 15 63 6.4 14.5 0.00 0.00 0.00 75 1013.0
20260501214054 15 68 4.8 14.5 0.00 0.00 0.00 75 1013.1
20260501213553 15 108 3.2 17.7 0.00 0.00 0.00 75 1013.2
20260501213100 15 79 6.4 20.9 0.00 0.00 0.00 75 1013.2
20260501212555 15 34 9.7 20.9 0.00 0.00 0.00 74 1013.5
20260501212053 15 11 8.0 17.7 0.00 0.00 0.00 74 1013.5
20260501211600 15 56 9.7 17.7 0.00 0.00 0.00 75 1013.1
20260501211053 15 74 4.8 12.9 0.00 0.00 0.00 75 1013.3
20260501210554 15 52 4.8 14.5 0.00 0.00 0.00 75 1013.7
20260501210055 15 97 6.4 14.5 0.00 0.00 0.00 76 1014.0
20260501205550 15 55 6.4 14.5 0.00 0.00 0.00 77 1014.0
20260501205055 15 61 6.4 14.5 0.00 0.00 0.00 78 1014.0
20260501204603 15 54 3.2 9.7 0.00 0.00 0.00 79 1014.0